Regional Weather Roundup
Issued by NWS

Home | Current Version | Previous Version | Graphics & Text | Print | Product List | Glossary On
Versions: 1 2 3 4 5 6 7 8 9 10 11 12 13 14 15 16 17 18 19 20 21 22 23 24 25 26 27 28 29 30 31 32 33 34 35 36 37 38 39 40 41 42 43 44 45 46 47 48 49 50
000
ASUS43 KIND 272109
RWRIN

WEATHER ROUNDUP FOR INDIANA
NATIONAL WEATHER SERVICE INDIANAPOLIS IN
500 PM EDT THU APR 27 2017

NOTE: "FAIR" INDICATES FEW OR NO CLOUDS BELOW 12,000 FEET WITH NO
SIGNIFICANT WEATHER AND/OR OBSTRUCTIONS TO VISIBILITY.

* - STATION DOES NOT REPORT WEATHER SUCH AS PRECIPITATION OR FOG.

+ - STATION NOT QUALITY CONTROLLED BY THE NATIONAL WEATHER SERVICE.
    USE DATA WITH CAUTION...ESPECIALLY DEWPOINT AND RELATIVE
    HUMIDITY OBSERVATIONS.

INZ001>003-010>013-019-020-272200-
NORTHWEST INDIANA

CITY           SKY/WX    TMP DP  RH WIND       PRES   REMARKS
GARY /AIRPORT/ CLOUDY    48  37  66 W17G32    29.72R
KNOX *+        CLOUDY    46  23  39 W16       29.72R
LA PORTE +     CLOUDY    47  40  76 W14G24    29.72R
MICHIGAN CITY+ CLOUDY    46  37  71 SW14G22   29.72R
MONTICELLO +   CLOUDY    50  44  81 SW14G21   29.74R
RENSSELAER +   CLOUDY    48  41  76 SW16G23   29.74S
VALPARAISO     CLOUDY    49  40  71 SW16      29.72R

$$

LMZ046-743>745-272200-
SOUTHERN LAKE MICHIGAN

STATION/POSITION TIME  TEMP    WIND        PRES    WAVE
                       AIR SEA DIR/SP/G            HT
                 (UTC) (F)     (DEG/KT/KT) (MB)    (FT)
BURNS HARBOR     2040   48     220/ 15/ 21 1006.4R
MICHIGAN CITY    2040   47     200/ 20/ 25   N/A
5NW MICH CITY    2100   46 47                N/A     4

$$

INZ004-005-014>016-021>024-272200-
NORTH CENTRAL INDIANA

CITY           SKY/WX    TMP DP  RH WIND       PRES   REMARKS
ELKHART        CLOUDY    48  39  71 W17G23    29.71R
GOSHEN         CLOUDY    50  39  66 SW15      29.71R
LOGANSPORT +   CLOUDY    50  43  76 W17G23    29.76R
PERU/GRISSOM   CLOUDY    51  44  78 W16       29.73R
ROCHESTER +    CLOUDY    52  41  66 W16G25    29.74R
SOUTH BEND     CLOUDY    47  39  74 SW20      29.71R
WARSAW +       CLOUDY    50  39  66 W15G22    29.72R

$$

INZ006>009-017-018-025>027-272200-
NORTHEAST INDIANA

CITY           SKY/WX    TMP DP  RH WIND       PRES   REMARKS
ANGOLA *+      CLOUDY    52  45  76 SW14      29.69R
AUBURN +       CLOUDY    52  41  66 SW10G25   29.72R
FORT WAYNE     CLOUDY    52  43  71 SW17G26   29.73R
HUNTINGTON +   CLOUDY    51  43  75 W13G20    29.74R
KENDALLVILLE + CLOUDY    50  42  73 W16G26    29.71R

$$

INZ028-029-035-036-043>045-051>053-272200-
WEST CENTRAL INDIANA

CITY           SKY/WX    TMP DP  RH WIND       PRES   REMARKS
CRAWFORDSVL +  CLOUDY    49  46  88 W13G18    29.76S
GREENCASTLE +  CLOUDY    52  43  71 W6        29.78S
LAFAYETTE      CLOUDY    50  44  80 W12G21    29.75R
TERRE HAUTE    CLOUDY    53  45  74 SW13      29.79R

$$

INZ030>032-037>040-046>048-054>057-064-065-272200-
CENTRAL INDIANA

CITY           SKY/WX    TMP DP  RH WIND       PRES   REMARKS
CP ATTERBURY + CLOUDY    55  45  67 W12       29.78R
COLUMBUS       CLOUDY    57  41  54 SW12      29.78R
FISHERS *+     CLOUDY    54  46  76 SW9G16    29.77R
FRANKFORT +    CLOUDY    52  47  82 W20       29.77R
GREENWOOD *+   CLOUDY    56  44  63 W12       29.78R
INDIANAPOLIS   CLOUDY    55  45  68 W16G23    29.77R
-EAGLE CREEK   CLOUDY    55  44  66 SW7G18    29.76R
KOKOMO +       CLOUDY    52  44  74 W18G26    29.76R
MARION +       CLOUDY    52  45  76 W17       29.76R
MT COMFORT *+  CLOUDY    54  45  71 W15G23    29.77R
SHELBYVILLE    CLOUDY    59  43  55 SW18G24   29.76R
ZIONSVILLE +   CLOUDY    51  45  78 W13G21    29.77R

$$

INZ033-034-041-042-049-050-058-059-272200-
EAST CENTRAL INDIANA

CITY           SKY/WX    TMP DP  RH WIND       PRES   REMARKS
MUNCIE         CLOUDY    57  43  59 W18G25    29.75R
RICHMOND +     CLOUDY    59  46  63 W18G24    29.75R

$$

INZ060-061-067>069-081>083-085>088-272200-
SOUTHWEST INDIANA

CITY           SKY/WX    TMP DP  RH WIND       PRES   REMARKS
EVANSVILLE     CLOUDY    61  48  62 W10       29.81S
HUNTINGBURG *+ CLOUDY    58  49  72 SW12      29.82R
WASHINGTON +   CLOUDY    59  46  61 SW13      29.79S

$$

INZ062-063-066-070>080-084-089>092-272200-
SOUTH CENTRAL AND SOUTHEAST INDIANA

CITY           SKY/WX    TMP DP  RH WIND       PRES   REMARKS
BEDFORD +      CLOUDY    57  46  67 SW12      29.78S
BLOOMINGTON    CLOUDY    58  46  64 W9        29.77F
MADISON *+     CLOUDY    61  46  59 W9        29.80S
NORTH VERNON + CLOUDY    57  46  67 SW12      29.78R
SEYMOUR +      CLOUDY    61  48  63 SW10      29.78S

$$





USA.gov is the U.S. government's official web portal to all federal, state and local government web resources and services.